Location: Stara Lesna
(49.1528°N, 20.2911°E)
Time: 02:28:16
(UTC+02:00)

Resurs 1-4 Rocket - Pass Details

Date: 13 July 2020
Orbit: 800 x 814 km, 98.6° (Epoch: 11 August)

Event Time Altitude Azimuth Distance (km) Brightness Sun altitude
Rises 03:45:24 0° 6° (N) 3,351 6.3 -8.5°
Reaches altitude 10° 03:48:07 10° 353° (N) 2,413 5.2 -8.2°
Maximum altitude 03:52:20 25° 301° (WNW) 1,613 3.6 -7.7°
Drops below altitude 10° 03:56:32 10° 248° (WSW) 2,395 4.0 -7.2°
Enters shadow 03:57:19 - 244° (WSW) 2,648 4.2 -7.2°
